New Delhi, India

2:18 AM IST on August 30, 2016 (GMT +0530)
Indira Gandhi International

Weather History for VIDP - November, 2011

Change the Weather History Date:

Wednesday, November 30, 2011

  Actual Average Record
Temperature  
Mean Temperature 66 °F -  
Max Temperature 78 °F 69 °F 91 °F (2000)
Min Temperature 53 °F 47 °F 46 °F (2003)
Growing Degree Days 16 (Base 50)    
Moisture  
Dew Point 44 °F    
Average Humidity 53    
Maximum Humidity 77    
Minimum Humidity 24    
Precipitation  
Precipitation 0.00 in - - ()
Sea Level Pressure  
Sea Level Pressure 29.92 in    
Wind  
Wind Speed 4 mph ()    
Max Wind Speed 9 mph    
Max Gust Speed -    
Visibility 1.6 miles    
Events      
Averages and records for this station are not official NWS values.
T = Trace of Precipitation, MM = Missing Value Source: Averaged Metar Reports

Daily Weather History Graph

Daily Weather History Graph

Search for Another Location

Airport or City:

Trip Planner

Search our weather history database for the weather conditions in past years. The results will help you decide how hot, cold, wet, or windy it might be!

Date:

Astronomy

Nov. 30, 2011 Rise Set
Actual Time 6:55 AM IST 5:24 PM IST
Civil Twilight 6:29 AM IST 5:49 PM IST
Nautical Twilight 6:00 AM IST 6:18 PM IST
Astronomical Twilight 5:32 AM IST 6:47 PM IST
Moon 11:10 AM IST (11/30) 10:38 PM IST (11/30)
Length of Visible Light 11h 20m
Length of Day
10h 28m
Waxing Crescent, 29% of the Moon is Illuminated
Nov 30
Waxing Crescent
Dec 2
First Quarter
Dec 10
Full
Dec 18
Last Quarter
Dec 24
New

Hourly Weather History & Observations

Time (IST) Temp. Dew Point Humidity Pressure Visibility Wind Dir Wind Speed Gust Speed Precip Events Conditions
12:00 AM 59.0 °F 48.2 °F 67% 29.92 in 0.9 mi WSW 4.6 mph - N/A   Smoke
12:30 AM 59.0 °F 46.4 °F 63% 29.92 in 0.9 mi WSW 4.6 mph - N/A   Smoke
1:00 AM 57.2 °F 46.4 °F 67% 29.92 in 0.9 mi WSW 4.6 mph - N/A   Smoke
1:30 AM 55.4 °F 46.4 °F 72% 29.92 in 0.9 mi WSW 3.5 mph - N/A   Smoke
2:00 AM 55.4 °F 46.4 °F 72% 29.92 in 0.7 mi WSW 3.5 mph - N/A   Smoke
2:30 AM 55.4 °F 46.4 °F 72% 29.92 in 0.6 mi SW 5.8 mph - N/A   Smoke
3:00 AM 55.4 °F 46.4 °F 72% 29.92 in 0.9 mi SW 4.6 mph - N/A   Smoke
3:30 AM 55.4 °F 46.4 °F 72% 29.89 in 0.7 mi Calm Calm - N/A   Smoke
4:00 AM 55.4 °F 44.6 °F 67% 29.89 in 0.7 mi Calm Calm - N/A   Smoke
4:30 AM 53.6 °F 44.6 °F 72% 29.89 in 0.7 mi SW 4.6 mph - N/A   Smoke
5:00 AM 53.6 °F 44.6 °F 72% 29.89 in 0.6 mi SW 4.6 mph - N/A   Smoke
5:30 AM 53.6 °F 44.6 °F 72% 29.89 in 0.6 mi SSW 4.6 mph - N/A   Smoke
6:00 AM 53.6 °F 44.6 °F 72% 29.89 in 0.6 mi SSW 4.6 mph - N/A   Smoke
6:30 AM 53.6 °F 44.6 °F 72% 29.92 in 0.7 mi SW 4.6 mph - N/A   Smoke
8:00 AM 53.6 °F 46.4 °F 77% 29.95 in 1.2 mi SW 4.6 mph - N/A   Mist
8:30 AM 55.4 °F 46.4 °F 72% 29.95 in 1.7 mi SW 5.8 mph - N/A   Haze
9:30 AM 59.0 °F 46.4 °F 63% 29.98 in 2.2 mi West 5.8 mph - N/A   Haze
10:00 AM 62.6 °F 46.4 °F 55% 29.98 in 2.2 mi West 4.6 mph - N/A   Haze
10:30 AM 66.2 °F 46.4 °F 49% 29.98 in 2.2 mi West 6.9 mph - N/A   Haze
11:00 AM 68.0 °F 46.4 °F 46% 29.98 in 2.2 mi WSW 6.9 mph - N/A   Haze
11:30 AM 69.8 °F 44.6 °F 40% 29.98 in 2.2 mi WNW 6.9 mph - N/A   Haze
12:00 PM 71.6 °F 44.6 °F 38% 29.95 in 2.2 mi West 6.9 mph - N/A   Haze
12:30 PM 71.6 °F 42.8 °F 35% 29.95 in 2.5 mi NNW 8.1 mph - N/A   Haze
1:00 PM 73.4 °F 42.8 °F 33% 29.92 in 2.5 mi West 6.9 mph - N/A   Haze
1:30 PM 75.2 °F 42.8 °F 31% 29.92 in 2.8 mi WSW 9.2 mph - N/A   Haze
2:00 PM 77.0 °F 41.0 °F 28% 29.89 in 2.8 mi West 8.1 mph - N/A   Haze
2:30 PM 78.8 °F 41.0 °F 26% 29.86 in 2.8 mi West 6.9 mph - N/A   Haze
3:30 PM 77.0 °F 41.0 °F 28% 29.86 in 3.1 mi WNW 9.2 mph - N/A   Haze
4:00 PM 77.0 °F 37.4 °F 24% 29.86 in 3.1 mi WNW 8.1 mph - N/A   Haze
4:30 PM 77.0 °F 37.4 °F 24% 29.86 in 3.1 mi WNW 6.9 mph - N/A   Haze
5:00 PM 75.2 °F 41.0 °F 29% 29.86 in 3.1 mi West 5.8 mph - N/A   Haze
5:30 PM 71.6 °F 41.0 °F 33% 29.89 in 3.1 mi West 5.8 mph - N/A   Haze
6:00 PM 69.8 °F 42.8 °F 38% 29.89 in - WSW 3.5 mph - N/A   Haze
6:30 PM 68.0 °F 42.8 °F 40% 29.89 in 2.5 mi WSW 3.5 mph - N/A   Haze
7:00 PM 66.2 °F 42.8 °F 43% 29.89 in - Calm Calm - N/A   Haze
8:00 PM 64.4 °F 42.8 °F 45% 29.92 in 1.4 mi Calm Calm - N/A   Haze
8:30 PM 62.6 °F 44.6 °F 52% 29.92 in 1.3 mi Calm Calm - N/A   Haze
9:00 PM 62.6 °F 46.4 °F 55% 29.92 in 1.1 mi Calm Calm - N/A   Haze
10:00 PM 62.6 °F 46.4 °F 55% 29.92 in 0.8 mi Calm Calm - N/A   Smoke
10:30 PM 60.8 °F 46.4 °F 59% 29.92 in 0.8 mi Calm Calm - N/A   Smoke
11:00 PM 60.8 °F 46.4 °F 59% 29.92 in 0.7 mi Calm Calm - N/A   Smoke
11:30 PM 60.8 °F 46.4 °F 59% 29.92 in 0.7 mi Variable 2.3 mph - N/A   Smoke